Waarnemingen

Advertentie
Mijn weer
Aberdeen/Dyce, Groot Brittannië (3091): temperatuur & dauwpunt: 16.06.2018 08:00:00 - 22.06.2018 08:00:00 (BST)Aberdeen/Dyce, Groot Brittannië (3091): temperatuur -20cm & temperatuur -100cm: 16.06.2018 08:00:00 - 22.06.2018 08:00:00 (BST)Aberdeen/Dyce, Groot Brittannië (3091): windsnelheid & windstoten: 16.06.2018 08:00:00 - 22.06.2018 08:00:00 (BST)Aberdeen/Dyce, Groot Brittannië (3091): windrichting: 16.06.2018 08:00:00 - 22.06.2018 08:00:00 (BST)Aberdeen/Dyce, Groot Brittannië (3091): luchtdruk: 16.06.2018 08:00:00 - 22.06.2018 08:00:00 (BST)Aberdeen/Dyce, Groot Brittannië (3091): zicht: 16.06.2018 08:00:00 - 22.06.2018 08:00:00 (BST)Aberdeen/Dyce, Groot Brittannië (3091): Zonneschijnduur: 16.06.2018 08:00:00 - 22.06.2018 08:00:00 (BST)Aberdeen/Dyce, Groot Brittannië (3091): neerslag: 16.06.2018 08:00:00 - 22.06.2018 08:00:00 (BST)
Datum & Tijd tt [°C] td [°C] tt -20cm [°C] tt -100cm [°C] ff [km/u] ff [kn] fx [km/u] fx [kn] dd ppp [hPa] vv [km] sd [min] rr [mm]
22.06.2018 08:00:00 10,8 5,3 - - 28 15 - - WNW 1029,5 10 24 0,0
22.06.2018 07:00:00 9,9 5,3 - - 22 12 - - WNW 1029,4 10 0 0,0
22.06.2018 06:00:00 9,3 5,1 - - 26 14 - - WNW 1029,1 10 18 0,0
22.06.2018 05:00:00 9,1 4,8 - - 29 16 - - NW 1028,6 10 0 0,0
22.06.2018 04:00:00 8,8 4,4 - - 31 17 46 25 NW 1028,4 10 0 0,0
22.06.2018 03:00:00 9,0 4,5 - - 28 15 48 26 WNW 1028,5 10 0 0,0
22.06.2018 02:00:00 9,4 4,5 - - 31 17 50 27 NW 1028,5 10 0 0,0
22.06.2018 01:00:00 9,7 4,6 - - 26 14 48 26 WNW 1028,3 10 - 0,0
22.06.2018 00:00:00 10,0 5,2 - - 31 17 50 27 WNW 1028,1 10 0 0,0
21.06.2018 23:00:00 10,9 4,3 - - 26 14 46 25 WNW 1027,8 10 0 0,0
21.06.2018 22:00:00 11,6 4,0 - - 35 19 55 30 NW 1027,2 10 30 0,0
21.06.2018 21:00:00 12,7 3,5 - - 31 17 61 33 NW 1026,8 10 60 0,0
21.06.2018 20:00:00 13,5 3,4 - - 29 16 65 35 NW 1026,1 10 60 0,0
21.06.2018 19:00:00 13,9 3,0 - - 48 26 67 36 NW 1025,8 10 48 0,0
21.06.2018 18:00:00 14,3 3,7 - - 44 24 70 38 NW 1025,2 10 42 0,0
21.06.2018 17:00:00 13,7 2,5 - - 44 24 72 39 NW 1024,8 10 0 0,0
21.06.2018 16:00:00 13,5 2,0 - - 41 22 68 37 NW 1024,4 10 0 0,0
21.06.2018 15:00:00 13,2 2,7 - - 44 24 68 37 NW 1024,0 10 6 0,0
21.06.2018 14:00:00 13,3 2,7 - - 46 25 72 39 NW 1023,4 10 42 0,0
21.06.2018 13:00:00 13,2 2,5 - - 44 24 68 37 NW 1023,1 10 54 0,0
21.06.2018 12:00:00 12,5 4,1 - - 42 23 70 38 NW 1022,5 10 18 0,0
21.06.2018 11:00:00 11,7 4,9 - - 41 22 57 31 NW 1021,8 10 6 0,0
21.06.2018 10:00:00 11,2 4,5 13,9 12,4 35 19 52 28 WNW 1021,5 10 24 0,0
21.06.2018 09:00:00 10,6 4,6 - - 35 19 54 29 NW 1021,2 10 36 0,0
21.06.2018 08:00:00 10,3 6,1 - - 29 16 - - NW 1020,8 10 54 0,0
21.06.2018 07:00:00 8,9 5,7 - - 28 15 - - WNW 1019,9 10 48 0,0
21.06.2018 06:00:00 8,1 5,5 - - 28 15 - - NW 1019,3 10 12 0,2
21.06.2018 05:00:00 7,6 5,6 - - 21 11 - - WNW 1018,6 10 0 0,0
21.06.2018 04:00:00 7,3 5,2 - - 31 17 48 26 WNW 1017,8 10 0 0,0
21.06.2018 03:00:00 6,7 5,1 - - 22 12 - - WNW 1017,0 10 0 0,0
21.06.2018 02:00:00 6,7 5,3 - - 21 11 - - WNW 1016,8 10 0 0,4
21.06.2018 01:00:00 6,7 5,0 - - 24 13 - - WNW 1016,4 10 - 0,2
21.06.2018 00:00:00 8,4 6,2 - - 29 16 46 25 WNW 1016,0 3,8 0 0,2
20.06.2018 23:00:00 9,8 7,6 - - 5 3 - - NW 1015,3 10 0 0,2
20.06.2018 22:00:00 10,6 7,8 - - 4 2 - - - 1015,3 10 0 0,0
20.06.2018 21:00:00 11,0 7,5 - - 4 2 - - - 1015,2 10 6 0,0
20.06.2018 20:00:00 11,0 9,2 - - 2 1 - - - 1015,2 10 0 0,0
20.06.2018 19:00:00 9,8 8,0 - - 8 4 - - O 1015,4 10 0 0,6
20.06.2018 18:00:00 10,4 8,3 - - 11 6 - - OZO 1015,7 10 0 0,4
20.06.2018 17:00:00 13,7 6,8 - - 11 6 - - W 1015,4 10 0 0,0
20.06.2018 16:00:00 13,7 7,0 - - 8 4 - - W 1015,4 10 0 0,0
20.06.2018 15:00:00 13,0 6,5 - - 13 7 - - NNW 1015,5 10 18 0,0
20.06.2018 14:00:00 13,0 5,8 - - 15 8 - - NW 1015,0 10 6 0,0
20.06.2018 13:00:00 12,1 6,5 - - 21 11 - - NNW 1014,7 10 6 0,0
20.06.2018 12:00:00 10,7 6,9 - - 22 12 - - N 1014,0 10 0 0,0
20.06.2018 11:00:00 11,2 8,5 - - 26 14 - - NNW 1013,2 10 0 0,0
20.06.2018 10:00:00 10,5 9,1 14,0 12,2 26 14 - - N 1012,1 10 0 0,0
20.06.2018 09:00:00 10,6 9,0 - - 22 12 - - NNW 1011,2 10 0 0,2
20.06.2018 08:00:00 9,3 8,7 - - 16 9 - - NNW 1011,0 9 0 1,8
20.06.2018 07:00:00 9,0 8,6 - - 15 8 - - NNW 1010,4 4,6 0 2,6
20.06.2018 06:00:00 8,7 8,4 - - 8 4 - - NNO 1009,7 3,5 0 1,4
20.06.2018 05:00:00 8,8 8,3 - - 9 5 - - NNO 1010,1 3,1 0 1,2
20.06.2018 04:00:00 9,2 8,7 - - 4 2 - - - 1011,2 6 0 0,6
20.06.2018 03:00:00 9,3 8,8 - - 5 3 - - NNO 1011,7 10 0 0,6
20.06.2018 02:00:00 9,3 8,5 - - 4 2 - - OZO 1012,8 10 0 0,8
20.06.2018 01:00:00 9,9 8,2 - - 9 5 - - Z 1013,9 7 - 0,8
20.06.2018 00:00:00 10,2 8,9 - - 8 4 - - ZZO 1014,1 10 0 0,8
19.06.2018 23:00:00 10,6 8,6 - - 5 3 - - - 1014,8 7 0 0,4
19.06.2018 22:00:00 11,6 7,9 - - 8 4 - - ZZW 1015,1 10 0 0,4
19.06.2018 21:00:00 12,3 8,0 - - 8 4 - - O 1015,2 10 0 0,0
19.06.2018 20:00:00 12,7 6,1 - - 8 4 - - ONO 1015,3 10 0 0,0
19.06.2018 19:00:00 13,8 5,5 - - 16 9 - - ONO 1015,0 10 0 0,0
19.06.2018 18:00:00 16,8 3,4 - - 13 7 - - W 1015,2 10 0 0,0
19.06.2018 17:00:00 17,0 3,0 - - 13 7 - - WZW 1015,2 40 18 0,0
19.06.2018 16:00:00 17,4 3,3 - - 13 7 - - ZW 1015,5 10 6 0,0
19.06.2018 15:00:00 16,9 3,3 - - 15 8 - - ZW 1015,4 10 24 0,0
19.06.2018 14:00:00 16,7 3,6 - - 26 14 - - WNW 1015,5 10 30 0,0
19.06.2018 13:00:00 15,4 3,3 - - 22 12 - - ZW 1015,8 10 0 0,0
19.06.2018 12:00:00 14,6 3,1 - - 16 9 - - WZW 1015,5 10 0 0,0
19.06.2018 11:00:00 14,3 2,6 - - 24 13 - - W 1015,2 10 0 0,0
19.06.2018 10:00:00 13,6 2,9 14,2 12,2 24 13 - - WZW 1014,7 10 6 0,0
19.06.2018 09:00:00 12,7 3,9 - - 22 12 - - WZW 1014,8 10 18 0,0
19.06.2018 08:00:00 11,6 4,2 - - 9 5 - - ZW 1014,5 10 0 0,0
19.06.2018 07:00:00 10,9 3,7 - - 13 7 - - ZZW 1013,6 10 0 0,0
19.06.2018 06:00:00 10,8 3,4 - - 24 13 - - WZW 1012,4 10 6 0,0
19.06.2018 05:00:00 9,4 3,2 - - 11 6 - - WZW 1012,1 10 0 0,0
19.06.2018 04:00:00 9,7 3,7 - - 16 9 - - WZW 1011,4 10 0 0,0
19.06.2018 03:00:00 8,6 2,6 - - 13 7 - - Z 1011,1 45 0 0,0
19.06.2018 02:00:00 10,1 2,4 - - 18 10 - - WZW 1010,4 45 0 0,0
19.06.2018 01:00:00 10,6 2,2 - - 24 13 - - W 1010,1 45 - 0,0
19.06.2018 00:00:00 10,4 2,6 - - 15 8 - - ZW 1010,2 10 0 0,0
18.06.2018 23:00:00 11,7 3,7 - - 15 8 - - ZW 1009,7 10 0 0,0
18.06.2018 22:00:00 12,9 3,8 - - 16 9 46 25 W 1009,1 10 18 0,0
18.06.2018 21:00:00 14,3 5,0 - - 29 16 46 25 WZW 1008,6 10 0 0,0
18.06.2018 20:00:00 15,7 4,5 - - 18 10 50 27 W 1007,7 10 24 0,0
18.06.2018 19:00:00 16,5 3,0 - - 28 15 48 26 WZW 1007,3 10 30 0,0
18.06.2018 18:00:00 17,7 3,9 - - 21 11 50 27 WZW 1006,9 10 60 0,0
18.06.2018 17:00:00 18,4 4,0 - - 31 17 54 29 W 1007,0 10 30 0,0
18.06.2018 16:00:00 17,4 4,2 - - 29 16 54 29 WZW 1007,1 10 42 0,0
18.06.2018 15:00:00 17,9 5,1 - - 29 16 52 28 WZW 1007,4 30 48 0,0
18.06.2018 14:00:00 18,1 5,5 - - 26 14 - - WZW 1007,1 10 36 0,0
18.06.2018 13:00:00 16,8 4,5 - - 21 11 - - WZW 1007,6 10 30 0,0
18.06.2018 12:00:00 17,2 4,6 - - 26 14 48 26 WZW 1007,7 10 54 0,0
18.06.2018 11:00:00 16,4 4,9 - - 26 14 - - WZW 1007,6 10 60 0,0
18.06.2018 10:00:00 14,9 4,4 14,2 12,2 24 13 - - WZW 1007,9 10 36 0,0
18.06.2018 09:00:00 14,7 5,7 - - 16 9 - - WZW 1007,8 10 30 0,0
18.06.2018 08:00:00 13,9 5,7 - - 18 10 - - W 1007,5 10 42 0,0
18.06.2018 07:00:00 12,6 6,1 - - 11 6 - - WZW 1007,1 10 0 0,0
18.06.2018 06:00:00 12,8 5,9 - - 16 9 - - WZW 1006,3 10 0 0,0
18.06.2018 05:00:00 13,2 6,6 - - 13 7 - - ZW 1006,2 10 0 0,0
18.06.2018 04:00:00 14,3 7,0 - - 9 5 - - - 1005,8 10 0 0,0
18.06.2018 03:00:00 14,1 9,6 - - 13 7 - - ZW 1004,9 10 0 0,0
18.06.2018 02:00:00 13,5 11,1 - - 13 7 - - Z 1005,0 10 0 0,0
18.06.2018 01:00:00 13,4 11,2 - - 13 7 - - ZZW 1005,3 10 - 0,0
18.06.2018 00:00:00 13,2 11,2 - - 18 10 - - Z 1005,3 10 0 0,0
17.06.2018 23:00:00 13,6 11,0 - - 15 8 - - ZZW 1005,5 10 0 0,0
17.06.2018 22:00:00 13,3 11,2 - - 15 8 - - Z 1005,7 10 0 0,0
17.06.2018 21:00:00 13,2 10,7 - - 15 8 - - Z 1006,2 10 0 0,2
17.06.2018 20:00:00 13,8 10,4 - - 16 9 - - Z 1006,5 10 0 0,0
17.06.2018 19:00:00 15,6 10,0 - - 24 13 - - Z 1006,6 10 0 0,0
17.06.2018 18:00:00 17,2 8,3 - - 29 16 - - ZZW 1006,6 10 12 0,0
17.06.2018 17:00:00 18,0 8,5 - - 26 14 - - ZZW 1006,7 10 12 0,0
17.06.2018 16:00:00 18,1 8,4 - - 24 13 - - ZZW 1006,3 10 12 0,0
17.06.2018 15:00:00 17,9 7,3 - - 16 9 - - ZZW 1006,8 10 18 0,0
17.06.2018 14:00:00 18,0 9,2 - - 9 5 - - Z 1006,9 10 30 0,0
17.06.2018 13:00:00 16,9 8,2 - - 8 4 - - - 1007,1 10 54 0,0
17.06.2018 12:00:00 15,1 8,7 - - 11 6 - - ZZO 1007,6 10 42 0,0
17.06.2018 11:00:00 14,1 8,1 - - 15 8 - - ZZO 1007,6 10 18 0,0
17.06.2018 10:00:00 14,9 9,1 13,7 12,2 11 6 - - ZZO 1007,7 1,4 60 0,0
17.06.2018 09:00:00 13,6 8,2 - - 5 3 - - - 1007,7 10 36 0,0
17.06.2018 08:00:00 12,0 9,1 - - 13 7 - - WZW 1007,7 10 18 0,0
17.06.2018 07:00:00 10,7 9,5 - - 9 5 - - ZW 1007,4 10 0 0,0
17.06.2018 06:00:00 9,9 9,3 - - 4 2 - - Z 1007,1 10 0 0,0
17.06.2018 05:00:00 9,9 9,5 - - 5 3 - - WZW 1007,2 10 0 0,0
17.06.2018 04:00:00 9,7 9,1 - - 4 2 - - - 1006,9 3,9 0 0,0
17.06.2018 03:00:00 10,2 9,8 - - 11 6 - - NW 1006,9 6 0 0,0
17.06.2018 02:00:00 10,6 9,9 - - 8 4 - - NNW 1006,8 9 0 0,0
17.06.2018 01:00:00 10,5 10,0 - - 9 5 - - NNW 1006,3 10 - 0,2
17.06.2018 00:00:00 10,4 10,2 - - 9 5 - - NNW 1005,8 7 0 0,2
16.06.2018 23:00:00 10,5 10,3 - - 5 3 - - N 1006,2 3,0 0 0,2
16.06.2018 22:00:00 10,3 10,0 - - 5 3 - - - 1005,9 5 0 0,0
16.06.2018 21:00:00 10,4 10,1 - - 9 5 - - O 1005,8 6 0 0,0
16.06.2018 20:00:00 10,6 10,1 - - 13 7 - - O 1006,0 10 0 0,2
16.06.2018 19:00:00 10,9 10,3 - - 13 7 - - OZO 1006,2 9 0 1,8
16.06.2018 18:00:00 10,7 9,3 - - 15 8 - - Z 1007,0 6 0 0,4
16.06.2018 17:00:00 11,5 10,2 - - 11 6 - - ZO 1006,9 10 0 0,6
16.06.2018 16:00:00 12,1 10,8 - - 16 9 - - ZZO 1007,1 10 0 0,6
16.06.2018 15:00:00 12,8 10,2 - - 24 13 - - ZZO 1007,3 10 0 0,0
16.06.2018 14:00:00 13,9 9,0 - - 22 12 - - Z 1007,4 10 0 0,0
16.06.2018 13:00:00 14,3 9,1 - - 18 10 - - ZZO 1007,8 10 0 0,0
16.06.2018 12:00:00 13,2 8,3 - - 28 15 - - Z 1008,3 10 0 0,0
16.06.2018 11:00:00 14,3 8,7 - - 24 13 - - ZZO 1008,4 10 30 0,0
16.06.2018 10:00:00 14,9 9,3 13,7 12,2 28 15 - - ZZO 1008,8 10 60 0,0
16.06.2018 09:00:00 13,7 8,6 - - 22 12 - - Z 1009,3 10 54 0,0
16.06.2018 08:00:00 11,9 9,1 - - 13 7 - - Z 1009,5 10 6 0,0

tt = temperatuur
td = dauwpunt
tt -20cm = temperatuur -20cm
tt -100cm = temperatuur -100cm
ff = windsnelheid
fx = windstoten
dd = windrichting
ppp = luchtdruk
vv = zicht
sd = Zonneschijnduur
rr = neerslag

Weerstations in de omgeving